Weather History for KSRQ - November, 2014

Change the Weather History Date:

Sunday, November 23, 2014

  Actual Average Record
Temperature  
Mean Temperature 77 °F 68 °F  
Max Temperature 83 °F 77 °F 90 °F (1963)
Min Temperature 71 °F 58 °F 36 °F (1981)
Degree Days  
Heating Degree Days 0 2  
Month to date heating degree days 55 14  
Since 1 July heating degree days 55 17  
Cooling Degree Days 12 4  
Month to date cooling degree days 57 129  
Year to date cooling degree days 3392 3273  
Growing Degree Days 26 (Base 50)    
Moisture  
Dew Point 72 °F    
Average Humidity 88    
Maximum Humidity 94    
Minimum Humidity 69    
Precipitation  
Precipitation T in 0.06 in 1.78 in (1988)
Month to date precipitation 2.24 1.46  
Year to date precipitation 48.67 50.01  
Sea Level Pressure  
Sea Level Pressure 29.94 in    
Wind  
Wind Speed 15 mph (SSE)    
Max Wind Speed 31 mph    
Max Gust Speed 38 mph    
Visibility 10 miles    
Events      
T = Trace of Precipitation, MM = Missing Value Source: NWS Daily Summary

Daily Weather History Graph

Daily Weather History Graph

Search for Another Location

Airport or City:

Trip Planner

Search our weather history database for the weather conditions in past years. The results will help you decide how hot, cold, wet, or windy it might be!

Date:

Astronomy

Nov. 23, 2014 Rise Set
Actual Time 6:56 AM EST 5:36 PM EST
Civil Twilight 6:31 AM EST 6:01 PM EST
Nautical Twilight 6:03 AM EST 6:29 PM EST
Astronomical Twilight 5:35 AM EST 6:57 PM EST
Moon 7:53 AM EST (11/23) 6:57 PM EST (11/23)
Length of Visible Light 11h 29m
Length of Day
10h 39m
New Moon, 2% of the Moon is Illuminated
Nov 23
New Moon
Nov 29
First Quarter
Dec 6
Full
Dec 14
Last Quarter
Dec 21
New

Hourly Weather History & Observations

Time (EST) Temp. Heat Index Dew Point Humidity Pressure Visibility Wind Dir Wind Speed Gust Speed Precip Events Conditions
12:10 AM 71.1 °F - 69.1 °F 93% 30.03 in 10.0 mi ESE 16.1 mph - N/A   Overcast
12:53 AM 71.1 °F - 69.1 °F 93% 30.02 in 10.0 mi ESE 13.8 mph - 0.00 in   Overcast
1:25 AM 71.1 °F - 69.1 °F 93% 30.02 in 10.0 mi ESE 15.0 mph - 0.00 in   Overcast
1:53 AM 71.1 °F - 69.1 °F 93% 30.01 in 10.0 mi ESE 12.7 mph - 0.00 in   Overcast
2:27 AM 71.1 °F - 69.1 °F 93% 30.00 in 10.0 mi ESE 15.0 mph - N/A   Overcast
2:53 AM 71.1 °F - 69.1 °F 93% 29.99 in 10.0 mi ESE 12.7 mph - N/A   Overcast
3:53 AM 72.0 °F - 70.0 °F 93% 29.98 in 10.0 mi ESE 10.4 mph - N/A   Overcast
4:53 AM 72.0 °F - 70.0 °F 93% 29.96 in 10.0 mi ESE 11.5 mph - N/A   Overcast
5:53 AM 73.0 °F - 71.1 °F 93% 29.96 in 10.0 mi SE 13.8 mph - N/A   Overcast
6:53 AM 73.0 °F - 71.1 °F 93% 29.96 in 10.0 mi SE 13.8 mph 24.2 mph N/A   Overcast
7:48 AM 73.4 °F - 71.6 °F 94% 29.98 in 10.0 mi SE 12.7 mph - N/A   Mostly Cloudy
7:53 AM 73.9 °F - 71.1 °F 91% 29.99 in 10.0 mi SE 13.8 mph - N/A   Mostly Cloudy
8:01 AM 73.9 °F - 71.1 °F 91% 29.98 in 10.0 mi SSE 15.0 mph - N/A   Mostly Cloudy
8:09 AM 73.9 °F - 71.1 °F 91% 29.98 in 10.0 mi SE 16.1 mph - N/A   Mostly Cloudy
8:26 AM 75.0 °F - 71.1 °F 87% 29.99 in 10.0 mi SE 17.3 mph - N/A   Scattered Clouds
8:53 AM 75.9 °F - 71.1 °F 85% 29.99 in 10.0 mi SSE 16.1 mph - N/A   Partly Cloudy
9:53 AM 79.0 °F - 71.1 °F 77% 29.99 in 10.0 mi SSE 15.0 mph 25.3 mph N/A   Scattered Clouds
10:53 AM 82.0 °F 86.3 °F 71.1 °F 69% 29.98 in 10.0 mi South 21.9 mph 28.8 mph N/A   Scattered Clouds
11:53 AM 82.9 °F 88.0 °F 72.0 °F 69% 29.94 in 10.0 mi South 23.0 mph 36.8 mph N/A   Clear
12:53 PM 82.9 °F 88.0 °F 72.0 °F 69% 29.90 in 10.0 mi South 20.7 mph 36.8 mph N/A   Partly Cloudy
1:53 PM 82.0 °F 86.7 °F 72.0 °F 71% 29.87 in 10.0 mi South 23.0 mph 35.7 mph N/A   Scattered Clouds
2:00 PM 81.0 °F 85.2 °F 72.0 °F 74% 29.87 in 10.0 mi South 23.0 mph 33.4 mph N/A   Mostly Cloudy
2:09 PM 82.0 °F 86.7 °F 72.0 °F 71% 29.87 in 10.0 mi South 24.2 mph 34.5 mph N/A   Scattered Clouds
2:53 PM 81.0 °F 85.2 °F 72.0 °F 74% 29.86 in 10.0 mi South 24.2 mph 32.2 mph N/A   Clear
3:53 PM 80.1 °F 83.8 °F 72.0 °F 76% 29.86 in 10.0 mi South 21.9 mph 28.8 mph N/A   Clear
4:53 PM 78.1 °F - 72.0 °F 81% 29.88 in 10.0 mi South 15.0 mph 24.2 mph N/A   Partly Cloudy
5:53 PM 75.9 °F - 72.0 °F 87% 29.88 in 10.0 mi South 15.0 mph - N/A   Partly Cloudy
6:53 PM 75.0 °F - 72.0 °F 90% 29.90 in 10.0 mi South 10.4 mph - N/A   Mostly Cloudy
7:53 PM 75.0 °F - 72.0 °F 90% 29.90 in 10.0 mi South 12.7 mph - N/A   Scattered Clouds
8:10 PM 75.0 °F - 73.0 °F 94% 29.91 in 10.0 mi South 13.8 mph - N/A   Mostly Cloudy
8:32 PM 75.0 °F - 73.0 °F 94% 29.91 in 10.0 mi South 13.8 mph - N/A   Overcast
8:53 PM 75.0 °F - 73.0 °F 94% 29.91 in 10.0 mi South 12.7 mph - N/A   Overcast
9:02 PM 75.0 °F - 73.0 °F 94% 29.91 in 10.0 mi South 13.8 mph - N/A   Overcast
9:19 PM 75.0 °F - 73.0 °F 94% 29.91 in 10.0 mi South 15.0 mph - N/A   Overcast
9:53 PM 75.0 °F - 73.0 °F 94% 29.92 in 10.0 mi South 8.1 mph - N/A   Overcast
10:00 PM 75.0 °F - 73.0 °F 94% 29.92 in 10.0 mi South 10.4 mph - N/A   Overcast
10:18 PM 75.0 °F - 73.0 °F 94% 29.93 in 10.0 mi South 10.4 mph - N/A   Overcast
10:44 PM 75.0 °F - 73.0 °F 94% 29.94 in 10.0 mi South 11.5 mph - N/A   Overcast
10:53 PM 75.0 °F - 73.0 °F 94% 29.93 in 10.0 mi South 11.5 mph - N/A   Overcast
11:43 PM 75.0 °F - 73.9 °F 96% 29.91 in 10.0 mi South 17.3 mph - N/A   Overcast
11:53 PM 75.0 °F - 73.9 °F 96% 29.91 in 10.0 mi South 15.0 mph - N/A   Overcast